Weather History for Torrington, WY

Change the Weather History Date:

Monday, April 29, 2013

  Actual Average Record
Temperature  
Mean Temperature 58 °F 51 °F  
Max Temperature 80 °F 66 °F 86 °F (2007)
Min Temperature 36 °F 37 °F 22 °F (2005)
Degree Days  
Heating Degree Days 7 14  
Month to date heating degree days 737 532  
Since 1 July heating degree days 6202 6216  
Cooling Degree Days 0 0  
Month to date cooling degree days 0 0  
Year to date cooling degree days 0 0  
Growing Degree Days 8 (Base 50)    
Moisture  
Dew Point 27 °F    
Average Humidity 52    
Maximum Humidity 92    
Minimum Humidity 12    
Precipitation  
Precipitation 0.00 in 0.07 in 0.15 in (2003)
Month to date precipitation 0.71 1.59  
Year to date precipitation 1.25 2.94  
Sea Level Pressure  
Sea Level Pressure 29.60 in    
Wind  
Wind Speed 15 mph (West)    
Max Wind Speed 39 mph    
Max Gust Speed 47 mph    
Visibility 10 miles    
Events      
T = Trace of Precipitation, MM = Missing Value Source: NWS Daily Summary

Daily Weather History Graph

Daily Weather History Graph

Search for Another Location

Airport:

Trip Planner

Search our weather history database for the weather conditions in past years. The results will help you decide how hot, cold, wet, or windy it might be!

Date:

Astronomy

Apr. 29, 2013 Rise Set
Actual Time 5:54 AM MDT 7:53 PM MDT
Civil Twilight 5:24 AM MDT 8:24 PM MDT
Nautical Twilight 4:47 AM MDT 9:01 PM MDT
Astronomical Twilight 4:07 AM MDT 9:41 PM MDT
Moon No Moon Rise 9:16 AM MDT (4/29)
Length of Visible Light 14h 59m
Length of Day
13h 59m
Waning Gibbous, 79% of the Moon is Illuminated
Apr 29
Waning Gibbous
May 2
Last Quarter
May 9
New
May 17
First Quarter
May 24
Full

Hourly Weather History & Observations

Time (MDT) Temp. Windchill Dew Point Humidity Pressure Visibility Wind Dir Wind Speed Gust Speed Precip Events Conditions
12:53 AM 48.0 °F - 35.1 °F 61% 29.83 in 10.0 mi East 5.8 mph - N/A   Scattered Clouds
1:53 AM 44.1 °F 38.1 °F 35.1 °F 71% 29.81 in 10.0 mi ENE 11.5 mph - N/A   Clear
2:53 AM 43.0 °F 37.7 °F 36.0 °F 76% 29.80 in 10.0 mi NE 9.2 mph - N/A   Clear
3:53 AM 42.1 °F 40.2 °F 36.0 °F 79% 29.79 in 10.0 mi NE 3.5 mph - N/A   Clear
4:53 AM 37.9 °F 34.4 °F 35.1 °F 89% 29.77 in 10.0 mi NE 4.6 mph - N/A   Clear
5:53 AM 37.9 °F - 34.0 °F 86% 29.76 in 10.0 mi Calm Calm - N/A   Clear
6:53 AM 37.9 °F - 34.0 °F 86% 29.75 in 10.0 mi Calm Calm - N/A   Clear
7:53 AM 42.1 °F 40.2 °F 36.0 °F 79% 29.74 in 10.0 mi SW 3.5 mph - N/A   Clear
8:53 AM 52.0 °F - 39.0 °F 61% 29.70 in 10.0 mi SSW 9.2 mph - N/A   Clear
9:33 AM 64.4 °F - 23.0 °F 21% 29.74 in 5.0 mi WSW 35.7 mph 47.2 mph N/A   Haze
9:53 AM 64.9 °F - 23.0 °F 20% 29.64 in 10.0 mi WSW 29.9 mph 42.6 mph N/A   Partly Cloudy
10:53 AM 69.1 °F - 19.9 °F 15% 29.61 in 10.0 mi West 24.2 mph 33.4 mph N/A   Clear
11:53 AM 71.1 °F - 19.0 °F 14% 29.58 in 10.0 mi WSW 20.7 mph 27.6 mph N/A   Clear
12:53 PM 73.0 °F - 18.0 °F 12% 29.54 in 10.0 mi West 17.3 mph 26.5 mph N/A   Clear
1:53 PM 75.0 °F - 21.0 °F 13% 29.52 in 10.0 mi West 19.6 mph 29.9 mph N/A   Clear
2:53 PM 79.0 °F - 21.9 °F 12% 29.46 in 10.0 mi West 19.6 mph 34.5 mph N/A   Clear
3:53 PM 78.1 °F - 21.0 °F 12% 29.44 in 10.0 mi West 21.9 mph 29.9 mph N/A   Clear
4:53 PM 75.9 °F - 21.0 °F 13% 29.44 in 10.0 mi West 23.0 mph 29.9 mph N/A   Clear
5:53 PM 73.0 °F - 21.9 °F 15% 29.44 in 10.0 mi West 15.0 mph 23.0 mph N/A   Clear
6:53 PM 72.0 °F - 21.9 °F 15% 29.44 in 10.0 mi West 10.4 mph 18.4 mph N/A   Clear
7:53 PM 71.1 °F - 21.9 °F 16% 29.43 in 10.0 mi WNW 17.3 mph 27.6 mph N/A   Clear
8:53 PM 71.1 °F - 19.9 °F 14% 29.42 in 10.0 mi West 20.7 mph 27.6 mph N/A   Clear
9:53 PM 70.0 °F - 23.0 °F 17% 29.41 in 10.0 mi West 19.6 mph 28.8 mph N/A   Clear
10:53 PM 66.0 °F - 25.0 °F 21% 29.42 in 10.0 mi WSW 11.5 mph - N/A   Clear
11:53 PM 68.0 °F - 23.0 °F 18% 29.43 in 10.0 mi WNW 26.5 mph 36.8 mph N/A   Clear